Wind_Speed
54 53 52 47 46 45 46 47 43 41 43 44 47 48 49 47 43 42 38 34 38 39 41 41 38 36 36 33 33 33 34 31 31 31 29 29 27 29 33 37 41 43 44 46 47
52 52 50 46 47 44 45 46 46 44 44 47 49 51 49 47 43 39 38 38 40 42 42 40 37 35 35 34 35 35 34 34 32 33 34 33 33 32 33 34 38 42 43 45 47
48 48 41 42 42 46 44 43 42 42 47 47 48 46 46 43 38 37 40 41 43 43 44 44 36 34 33 36 36 35 35 34 34 34 35 33 34 34 38 40 40 40 42 42 45
47 44 43 45 44 42 40 41 43 41 45 42 45 46 46 42 41 40 39 38 40 43 39 35 35 33 32 34 36 36 38 38 39 40 41 40 38 40 41 43 46 46 45 48 47
41 44 42 44 42 36 42 40 40 39 35 36 39 41 41 39 36 36 38 39 37 33 36 32 30 31 32 34 37 39 38 37 40 37 36 34 35 38 41 40 44 46 43 45 47
43 45 45 43 38 36 37 40 39 37 35 34 31 33 36 37 37 35 33 33 30 27 31 32 33 34 36 36 39 40 40 40 38 36 37 35 40 38 35 38 40 41 43 43 46
47 48 49 46 42 42 42 43 41 39 37 34 35 31 32 39 38 33 31 28 27 29 32 33 36 38 39 41 41 41 43 42 42 41 42 42 46 42 42 39 39 40 39 43 46
46 46 45 45 45 44 43 42 41 39 40 37 34 34 35 38 42 39 36 32 31 33 36 39 41 42 43 41 42 42 45 46 45 46 47 46 46 45 45 46 46 46 46 46 47
50 52 51 51 49 50 47 49 44 45 44 43 41 39 37 40 40 41 38 36 37 38 40 42 42 44 45 41 43 43 46 47 48 51 51 53 52 50 52 49 45 46 47 48 49
54 54 57 60 56 56 55 58 54 52 51 48 46 46 45 44 45 44 46 42 42 43 42 44 46 46 46 44 46 46 48 50 51 54 54 53 54 56 57 53 51 51 52 52 51
66 61 68 63 66 64 59 57 59 58 57 54 51 51 53 49 52 48 47 49 53 49 46 46 50 49 47 49 50 51 52 52 55 57 58 56 58 60 58 57 55 55 57 57 57
74 75 73 77 71 70 69 58 58 64 61 59 55 53 51 54 53 57 57 56 53 54 53 54 51 49 53 52 53 56 56 58 58 59 58 59 59 61 63 62 63 63 62 62 62
80 82 83 79 82 79 78 78 72 69 59 66 62 60 62 56 58 64 60 61 59 55 55 55 55 54 56 58 58 60 62 61 64 62 61 63 62 64 66 68 68 68 68 69 70
94 91 91 90 84 86 85 87 86 79 72 58 67 61 66 63 58 71 65 64 63 63 60 58 61 60 59 61 63 64 65 64 65 64 64 65 63 66 71 73 72 73 75 75 75
104 102 94 96 94 90 91 95 95 95 82 72 70 72 74 68 63 73 73 67 68 71 66 63 64 64 65 67 65 67 67 68 67 65 64 65 69 65 70 74 78 78 79 80 81
102 107 101 100 99 98 98 100 102 106 87 76 72 75 80 80 74 75 78 75 74 73 70 70 70 71 70 72 70 71 73 75 74 72 70 70 74 64 71 75 79 82 83 85 86
111 112 109 107 101 106 106 108 112 114 89 86 79 79 82 85 84 84 84 80 80 80 76 79 79 78 78 78 77 77 77 77 76 77 76 75 78 72 75 77 80 84 86 88 89
119 118 121 113 110 109 112 117 122 106 98 97 91 86 85 87 89 90 92 87 85 84 83 87 87 86 85 85 85 84 82 83 86 84 82 79 80 80 80 81 86 89 92 92 94
127 123 124 123 120 117 119 123 115 110 100 102 101 94 90 94 93 93 93 91 91 91 94 93 91 91 91 90 90 88 85 86 89 88 88 86 87 83 84 89 90 92 93 96 97
132 130 124 129 129 130 131 126 118 109 108 106 108 100 95 95 97 98 97 92 93 95 99 100 99 93 93 95 93 92 89 92 93 97 98 92 88 86 89 92 94 96 98 99 100
140 137 131 134 139 142 139 127 123 113 118 116 111 112 106 104 105 103 100 96 96 98 103 101 102 100 99 100 98 98 96 96 96 98 95 95 92 90 91 95 99 101 102 103 105
146 147 136 143 146 142 142 133 126 121 123 124 122 117 112 110 107 107 101 99 101 104 105 106 108 106 106 103 101 100 99 100 101 100 102 100 93 97 100 104 105 105 106 107 110
149 150 147 148 151 146 144 143 138 134 128 131 130 124 120 117 118 113 108 105 105 106 108 111 113 110 113 104 103 106 105 106 107 108 106 108 99 102 105 109 110 110 110 111 114
138 149 148 147 150 151 150 147 149 140 137 135 134 132 129 126 121 119 114 113 113 113 113 114 115 114 114 112 111 112 111 112 113 113 111 111 108 108 112 114 114 114 115 118 120
127 133 137 141 143 151 153 153 153 149 142 141 140 138 133 130 128 126 124 123 120 117 117 120 121 118 117 116 119 117 115 118 116 116 119 114 114 115 118 119 118 119 122 122 123
109 110 120 126 128 135 144 148 149 150 149 144 142 142 140 135 134 132 132 132 128 124 121 124 123 125 126 122 120 120 121 120 120 122 121 119 118 121 123 122 123 124 125 125 122
100 104 106 109 113 114 119 124 130 139 145 144 143 142 144 140 142 140 140 139 131 132 128 126 129 128 128 124 123 124 116 119 121 123 123 124 122 125 126 124 123 124 123 119 116
Wind_Direction
257 257 258 259 259 261 263 261 262 264 267 262 265 267 272 267 271 269 267 260 268 275 272 280 282 277 282 287 287 292 295 293 288 286 285 286 289 294 296 292 289 288 289 287 286
254 256 254 261 256 258 260 260 259 264 269 269 268 273 266 261 264 266 266 261 268 271 270 278 278 276 282 284 288 290 295 298 289 284 284 288 290 286 285 286 287 285 288 289 287
252 258 255 252 258 256 256 257 260 268 265 266 268 266 260 258 257 263 261 260 267 264 270 275 272 277 280 284 287 293 295 294 291 290 286 287 287 289 286 281 281 283 285 286 288
249 252 252 250 258 256 258 260 263 265 267 265 263 258 259 258 259 255 261 263 264 268 270 267 266 273 279 287 290 289 291 292 294 293 291 290 291 291 286 286 283 283 281 284 281
248 247 249 255 257 258 256 259 258 258 262 262 264 262 262 261 255 256 258 258 262 262 267 264 268 277 281 287 288 287 291 291 292 294 297 295 296 295 297 292 286 281 281 283 284
256 244 250 251 259 260 261 261 252 254 258 265 275 268 268 262 257 258 254 255 256 259 267 271 274 279 281 283 285 287 290 295 297 300 298 297 299 300 295 303 303 293 284 277 276
255 253 253 252 258 260 266 257 256 257 261 267 270 277 268 262 255 248 249 249 255 261 266 269 272 276 278 280 285 283 287 293 297 300 299 301 306 303 302 303 303 303 299 296 291
261 256 255 256 260 259 260 260 258 262 270 271 273 272 271 258 253 249 253 258 264 265 270 270 272 275 277 279 284 286 289 291 293 298 299 304 304 302 306 308 310 310 309 309 309
266 266 262 262 263 262 262 260 261 273 268 268 266 263 267 262 260 260 266 264 261 266 270 272 274 278 279 285 288 288 287 292 296 297 299 302 302 301 303 307 308 306 304 302 302
258 266 265 263 258 263 267 267 266 270 270 270 262 268 269 264 264 266 270 271 275 277 272 274 272 273 279 285 285 285 287 290 294 296 298 298 299 300 303 304 305 303 301 301 302
258 262 266 263 264 269 277 265 266 269 265 268 265 267 265 268 266 267 268 269 272 278 275 275 278 273 279 281 285 288 289 292 294 295 294 293 297 300 301 302 303 300 300 301 301
258 258 262 263 262 265 267 269 262 264 266 266 266 263 266 266 265 268 274 274 273 276 277 280 282 281 279 281 284 284 286 288 291 289 289 290 294 297 298 298 298 299 299 299 300
255 258 258 263 259 262 260 261 261 265 259 266 266 264 266 266 267 269 271 271 271 274 273 276 277 276 277 278 281 284 284 284 287 288 288 289 291 292 294 294 296 297 298 298 299
255 256 259 257 260 260 261 259 259 257 260 257 266 265 267 268 268 270 271 271 270 270 273 275 272 274 275 277 279 281 281 282 284 286 288 290 289 291 291 293 294 294 295 297 297
261 255 254 257 260 258 258 258 257 257 259 254 254 262 266 268 264 267 269 270 269 269 273 272 272 272 272 274 277 280 281 281 283 287 293 293 287 291 293 292 290 293 293 294 294
253 253 256 253 254 256 255 257 256 256 259 258 257 254 262 262 264 266 268 268 270 271 270 270 268 270 271 273 275 279 281 280 285 288 292 290 292 299 290 288 289 291 292 292 295
255 251 252 253 252 251 252 253 253 254 261 259 257 251 253 258 260 265 267 268 267 270 272 270 271 271 274 277 280 280 281 283 286 288 290 289 292 297 293 291 290 290 292 294 296
255 252 250 255 254 250 250 249 250 253 254 256 253 254 251 250 253 259 264 266 268 266 268 272 274 274 277 278 279 281 285 287 287 287 288 289 291 292 293 291 290 292 294 295 296
252 251 249 253 250 251 251 250 251 253 253 254 251 252 251 253 253 255 258 262 267 270 269 267 269 272 274 276 279 280 283 283 286 287 286 287 288 289 291 291 293 293 294 295 296
251 250 248 250 252 250 251 248 250 252 252 252 252 254 250 251 252 255 256 259 262 266 267 270 270 269 271 274 276 278 280 282 284 285 286 287 287 287 290 293 292 292 294 294 296
249 251 248 249 250 249 251 251 250 250 254 251 250 252 253 252 255 255 256 257 259 262 264 268 270 269 270 272 274 276 279 282 285 285 285 283 287 292 290 289 290 292 294 295 295
248 249 247 248 248 248 250 252 252 246 248 252 254 253 252 250 251 252 253 255 256 258 261 264 267 269 271 271 273 275 278 280 281 281 281 285 286 289 289 290 290 292 293 295 295
248 248 246 245 247 248 249 251 250 248 248 250 250 251 252 253 253 252 251 251 253 256 259 261 263 265 267 270 272 271 272 274 277 279 282 283 287 287 289 289 291 292 295 296 296
248 247 246 245 246 247 248 250 250 249 250 249 250 250 249 249 251 253 255 254 253 254 256 257 260 262 265 267 267 269 271 274 276 278 281 282 285 285 285 288 290 293 295 295 296
248 248 248 249 246 245 246 248 248 248 249 248 249 250 250 250 250 251 252 253 255 256 257 257 258 259 261 263 265 266 269 271 276 279 279 282 285 285 286 288 292 293 293 295 295
246 246 247 247 246 245 245 248 248 247 247 248 249 249 249 252 253 252 252 252 252 252 254 258 261 262 261 263 265 266 268 271 275 278 281 284 286 284 287 289 290 292 293 294 295
245 244 245 245 246 247 245 247 248 248 248 248 248 248 248 248 250 251 252 254 253 252 253 255 257 260 263 265 266 268 273 275 277 279 281 282 283 282 285 288 289 289 291 293 294
Height
10758 10761 10765 10769 10771 10773 10774 10776 10778 10780 10781 10782 10783 10782 10783 10784 10785 10786 10788 10789 10791 10791 10791 10792 10792 10792 10792 10791 10792 10793 10794 10796 10795 10792 10791 10790 10790 10787 10784 10782 10779 10776 10774 10773 10770
10747 10749 10753 10757 10760 10762 10764 10766 10768 10770 10771 10772 10773 10772 10772 10774 10777 10777 10780 10782 10782 10783 10783 10784 10785 10785 10785 10785 10785 10786 10786 10786 10787 10786 10785 10783 10784 10782 10779 10776 10772 10769 10766 10764 10762
10736 10739 10742 10745 10749 10752 10754 10755 10757 10759 10760 10760 10761 10762 10762 10764 10767 10768 10770 10773 10775 10775 10775 10776 10777 10777 10777 10777 10777 10777 10779 10777 10777 10778 10777 10777 10777 10775 10773 10769 10766 10764 10761 10757 10754
10724 10728 10732 10735 10738 10741 10743 10745 10747 10747 10750 10750 10751 10752 10753 10755 10757 10760 10762 10764 10765 10767 10767 10768 10769 10770 10770 10768 10768 10768 10770 10770 10769 10769 10768 10768 10768 10765 10764 10762 10759 10756 10752 10749 10746
10713 10716 10719 10723 10728 10730 10734 10736 10737 10738 10739 10740 10743 10743 10745 10746 10747 10750 10753 10755 10756 10757 10759 10760 10761 10763 10762 10761 10760 10760 10762 10762 10760 10760 10758 10759 10758 10757 10754 10752 10749 10745 10742 10740 10738
10703 10705 10708 10712 10716 10719 10723 10726 10727 10729 10731 10732 10734 10735 10737 10738 10739 10742 10745 10746 10748 10749 10751 10752 10752 10754 10754 10754 10751 10751 10752 10752 10751 10751 10749 10750 10747 10746 10745 10743 10741 10737 10733 10729 10726
10691 10695 10698 10701 10704 10708 10711 10714 10717 10720 10721 10722 10725 10726 10728 10729 10731 10733 10736 10738 10740 10741 10741 10743 10744 10744 10745 10745 10744 10743 10743 10742 10742 10742 10740 10741 10737 10734 10733 10732 10730 10727 10723 10721 10717
10679 10683 10686 10690 10694 10697 10700 10703 10706 10710 10712 10713 10716 10718 10720 10720 10723 10725 10727 10729 10730 10732 10733 10733 10734 10734 10734 10736 10735 10734 10732 10734 10733 10731 10730 10732 10729 10726 10723 10720 10717 10713 10710 10708 10705
10667 10671 10674 10678 10683 10686 10690 10692 10695 10698 10702 10704 10707 10710 10712 10714 10715 10716 10719 10721 10721 10723 10723 10723 10724 10723 10724 10725 10725 10724 10722 10721 10723 10721 10721 10721 10719 10716 10714 10710 10706 10703 10701 10698 10696
10654 10658 10660 10665 10668 10673 10677 10680 10683 10686 10690 10695 10697 10700 10703 10705 10706 10707 10708 10711 10712 10712 10713 10714 10713 10712 10714 10715 10714 10713 10712 10710 10711 10709 10710 10709 10708 10706 10703 10699 10696 10693 10690 10687 10684
10639 10642 10645 10648 10652 10658 10661 10667 10670 10674 10677 10682 10685 10688 10691 10694 10696 10696 10697 10699 10700 10701 10703 10703 10702 10702 10705 10703 10703 10701 10700 10700 10700 10699 10699 10698 10697 10695 10692 10688 10684 10681 10678 10675 10671
10621 10625 10628 10631 10635 10640 10647 10652 10655 10657 10664 10668 10674 10675 10677 10683 10685 10683 10685 10686 10688 10690 10690 10690 10689 10692 10690 10690 10690 10689 10688 10688 10689 10687 10688 10688 10688 10685 10681 10676 10672 10668 10664 10662 10659
10600 10604 10608 10613 10618 10623 10627 10631 10633 10635 10649 10655 10660 10664 10663 10671 10671 10665 10674 10672 10674 10676 10676 10679 10678 10679 10678 10678 10677 10677 10675 10676 10676 10676 10676 10676 10677 10674 10670 10665 10659 10653 10648 10646 10643
10578 10582 10584 10589 10600 10605 10607 10607 10612 10613 10629 10650 10638 10654 10652 10654 10663 10646 10657 10660 10662 10661 10664 10668 10666 10666 10667 10664 10664 10663 10661 10661 10661 10662 10665 10664 10666 10662 10655 10651 10645 10639 10635 10630 10626
10553 10556 10560 10570 10578 10583 10584 10581 10584 10585 10607 10626 10635 10638 10635 10635 10646 10634 10639 10647 10648 10645 10651 10652 10650 10652 10652 10647 10649 10647 10645 10644 10645 10648 10651 10651 10644 10655 10644 10635 10627 10624 10619 10615 10611
10525 10529 10537 10546 10554 10558 10557 10557 10554 10546 10597 10609 10620 10622 10619 10618 10622 10621 10621 10629 10632 10632 10637 10637 10635 10636 10637 10632 10633 10632 10628 10626 10629 10630 10637 10633 10626 10648 10630 10620 10612 10607 10602 10597 10593
10493 10500 10510 10517 10529 10531 10531 10526 10520 10519 10582 10589 10597 10600 10603 10604 10604 10602 10604 10609 10613 10616 10622 10614 10619 10619 10619 10617 10616 10615 10610 10610 10612 10612 10617 10618 10615 10624 10614 10605 10597 10589 10583 10578 10574
10461 10471 10479 10489 10497 10500 10497 10491 10484 10524 10552 10563 10572 10573 10580 10584 10587 10585 10584 10590 10595 10598 10601 10598 10599 10599 10602 10599 10595 10595 10596 10596 10588 10593 10599 10600 10604 10605 10596 10588 10580 10573 10566 10561 10555
10423 10438 10452 10457 10459 10464 10460 10455 10475 10507 10531 10533 10537 10545 10559 10560 10567 10568 10570 10579 10578 10578 10574 10577 10580 10581 10581 10581 10577 10582 10581 10573 10570 10573 10575 10583 10586 10586 10578 10569 10561 10553 10549 10544 10539
10391 10406 10425 10424 10424 10425 10419 10435 10457 10488 10498 10500 10502 10519 10535 10539 10541 10544 10553 10568 10563 10558 10549 10550 10553 10562 10562 10560 10563 10560 10560 10555 10553 10549 10550 10560 10564 10564 10559 10552 10540 10533 10531 10527 10521
10352 10363 10401 10391 10381 10381 10388 10423 10438 10468 10459 10465 10479 10485 10506 10514 10516 10520 10534 10546 10542 10540 10526 10532 10531 10538 10540 10543 10543 10541 10543 10539 10534 10531 10528 10529 10544 10547 10538 10528 10520 10515 10512 10506 10499
10311 10322 10359 10354 10340 10356 10364 10395 10416 10437 10434 10433 10441 10456 10473 10485 10488 10493 10509 10518 10517 10515 10513 10513 10506 10514 10518 10524 10526 10525 10526 10521 10515 10513 10506 10511 10531 10523 10514 10505 10498 10496 10490 10485 10476
10270 10277 10304 10313 10308 10329 10346 10356 10372 10394 10412 10406 10413 10430 10441 10449 10454 10469 10484 10494 10491 10492 10494 10492 10485 10491 10491 10508 10512 10504 10502 10501 10496 10492 10497 10491 10512 10502 10491 10479 10475 10473 10470 10463 10452
10225 10234 10250 10269 10285 10296 10308 10321 10327 10360 10372 10377 10387 10397 10406 10421 10432 10441 10457 10461 10464 10465 10468 10464 10462 10471 10477 10481 10479 10478 10482 10480 10477 10478 10480 10480 10484 10481 10464 10458 10456 10456 10450 10440 10431
10184 10195 10212 10217 10250 10265 10269 10281 10290 10308 10336 10346 10349 10361 10379 10391 10405 10414 10424 10426 10431 10439 10442 10434 10439 10446 10454 10455 10449 10457 10462 10459 10464 10463 10454 10464 10461 10454 10439 10436 10438 10434 10425 10417 10408
10147 10163 10176 10187 10198 10219 10225 10241 10260 10276 10288 10309 10323 10336 10344 10360 10373 10381 10383 10385 10397 10409 10416 10410 10416 10419 10422 10433 10435 10432 10434 10443 10444 10438 10435 10436 10441 10426 10420 10418 10416 10410 10403 10393 10384
10122 10128 10147 10154 10168 10179 10196 10215 10229 10241 10253 10272 10283 10292 10309 10331 10330 10343 10349 10356 10373 10380 10390 10394 10394 10398 10400 10408 10405 10404 10429 10421 10419 10417 10412 10411 10412 10404 10401 10398 10392 10385 10379 10370 10362